Weather History for KBMQ - July, 2013

Change the Weather History Date:

Tuesday, July 30, 2013

  Actual Average Record
Temperature  
Mean Temperature 84 °F -  
Max Temperature 95 °F 93 °F 100 °F (2012)
Min Temperature 75 °F 71 °F 70 °F (2005)
Cooling Degree Days 19    
Growing Degree Days 34 (Base 50)    
Moisture  
Dew Point 68 °F    
Average Humidity 62    
Maximum Humidity 84    
Minimum Humidity 33    
Precipitation  
Precipitation 0.00 in - - ()
Sea Level Pressure  
Sea Level Pressure 30.04 in    
Wind  
Wind Speed 10 mph (South)    
Max Wind Speed 17 mph    
Max Gust Speed 25 mph    
Visibility 10 miles    
Events      
Averages and records for this station are not official NWS values.
T = Trace of Precipitation, MM = Missing Value Source: NWS Daily Summary

Daily Weather History Graph

Daily Weather History Graph

Search for Another Location

Airport or City:

Trip Planner

Search our weather history database for the weather conditions in past years. The results will help you decide how hot, cold, wet, or windy it might be!

Date:

Astronomy

Jul. 30, 2013 Rise Set
Actual Time 6:49 AM CDT 8:28 PM CDT
Civil Twilight 6:23 AM CDT 8:55 PM CDT
Nautical Twilight 5:51 AM CDT 9:26 PM CDT
Astronomical Twilight 5:18 AM CDT 9:59 PM CDT
Moon 1:05 AM CDT (7/30) 2:51 PM CDT (7/30)
Length of Visible Light 14h 31m
Length of Day
13h 39m
Last Quarter, 41% of the Moon is Illuminated
Jul 30
Last Quarter
Aug 6
New
Aug 14
First Quarter
Aug 20
Full
Aug 28
Last Quarter

Hourly Weather History & Observations

Time (CDT) Temp. Heat Index Dew Point Humidity Pressure Visibility Wind Dir Wind Speed Gust Speed Precip Events Conditions
12:53 AM 79.0 °F - 69.1 °F 72% 30.01 in 10.0 mi SSE 8.1 mph - N/A   Clear
1:53 AM 78.1 °F - 69.1 °F 74% 30.01 in 10.0 mi SSE 8.1 mph 17.3 mph N/A   Clear
2:40 AM 77.0 °F - 70.0 °F 79% 30.07 in 10.0 mi South 8.1 mph - N/A   Mostly Cloudy
2:53 AM 77.0 °F - 70.0 °F 79% 30.02 in 10.0 mi SSE 8.1 mph - N/A   Overcast
3:53 AM 75.9 °F - 70.0 °F 82% 30.03 in 10.0 mi South 12.7 mph - N/A   Overcast
4:53 AM 75.0 °F - 70.0 °F 84% 30.04 in 9.0 mi South 8.1 mph - N/A   Mostly Cloudy
5:17 AM 75.0 °F - 70.0 °F 84% 30.09 in 9.0 mi South 9.2 mph - N/A   Scattered Clouds
5:53 AM 75.0 °F - 69.1 °F 82% 30.04 in 9.0 mi South 10.4 mph - N/A   Partly Cloudy
6:53 AM 75.0 °F - 70.0 °F 84% 30.06 in 9.0 mi South 10.4 mph - N/A   Clear
7:53 AM 75.0 °F - 70.0 °F 84% 30.06 in 8.0 mi South 13.8 mph - N/A   Clear
8:53 AM 77.0 °F - 70.0 °F 79% 30.07 in 8.0 mi South 13.8 mph 25.3 mph N/A   Clear
9:46 AM 80.1 °F 83.2 °F 70.0 °F 71% 30.14 in 9.0 mi South 16.1 mph 25.3 mph N/A   Mostly Cloudy
9:53 AM 81.0 °F 84.4 °F 70.0 °F 69% 30.08 in 9.0 mi SSW 17.3 mph 24.2 mph N/A   Mostly Cloudy
10:18 AM 82.0 °F 85.9 °F 70.0 °F 67% 30.13 in 9.0 mi South 12.7 mph 21.9 mph N/A   Scattered Clouds
10:53 AM 84.0 °F 88.4 °F 70.0 °F 63% 30.07 in 10.0 mi South 12.7 mph 20.7 mph N/A   Clear
11:53 AM 86.0 °F 90.1 °F 69.1 °F 57% 30.07 in 10.0 mi SSW 10.4 mph - N/A   Clear
12:53 PM 88.0 °F 91.4 °F 68.0 °F 51% 30.06 in 10.0 mi SSW 9.2 mph 17.3 mph N/A   Clear
1:53 PM 90.0 °F 93.6 °F 68.0 °F 48% 30.04 in 10.0 mi South 11.5 mph 19.6 mph N/A   Clear
2:53 PM 91.0 °F 93.8 °F 66.0 °F 44% 30.01 in 10.0 mi South 10.4 mph - N/A   Clear
3:53 PM 91.0 °F 94.3 °F 66.9 °F 45% 29.99 in 10.0 mi South 8.1 mph - N/A   Clear
4:53 PM 93.0 °F 95.9 °F 66.0 °F 41% 29.98 in 10.0 mi SSE 6.9 mph - N/A   Clear
5:53 PM 93.9 °F 95.2 °F 63.0 °F 36% 29.96 in 10.0 mi SSE 10.4 mph 18.4 mph N/A   Clear
6:53 PM 93.9 °F 94.0 °F 61.0 °F 33% 29.96 in 10.0 mi SSE 8.1 mph 18.4 mph N/A   Clear
7:53 PM 91.0 °F 91.9 °F 63.0 °F 39% 29.96 in 10.0 mi SE 5.8 mph - N/A   Clear
8:53 PM 88.0 °F 89.3 °F 64.0 °F 45% 29.98 in 10.0 mi SSE 4.6 mph - N/A   Clear
9:53 PM 86.0 °F 87.3 °F 64.0 °F 48% 30.00 in 10.0 mi SSE 8.1 mph - N/A   Clear
10:53 PM 84.9 °F 87.1 °F 66.0 °F 53% 30.02 in 10.0 mi SSE 8.1 mph - N/A   Clear
11:53 PM 82.9 °F 84.6 °F 64.9 °F 54% 30.03 in 10.0 mi South 10.4 mph 19.6 mph N/A   Clear